September 25, 2022

Time Code Weather Temp. Visibility Ceiling Wind METAR/SPECI
9:00 pm
V
57 °F 15 mi 5,500 ft 260° 260° 8 kt METAR CYYZ 260100Z 26008KT 15SM BKN055 BKN085 14/14 A2955 RMK SC5AC2 SLP010 DENSITY ALT 1100FT
8:00 pm
V
59 °F 15 mi 5,100 ft 270° 270° 10 kt METAR CYYZ 260000Z 27010KT 15SM FEW028 BKN051 BKN120 15/13 A2954 RMK CF2SC4AC1 SLP007 DENSITY ALT 1200FT
7:00 pm
V
61 °F 15 mi 6,700 ft 310° 310° 11 kt METAR CYYZ 252300Z 31011KT 15SM FEW025 BKN067 BKN120 16/13 A2954 RMK CF2AC4AC1 SLP005 DENSITY ALT 1300FT
6:00 pm
M
61 °F 10 mi 2,000 ft 300° 300° 12 - 17 kt METAR CYYZ 252200Z 30012G17KT 10SM VCSH FEW014 BKN020TCU BKN080 16/13 A2953 RMK CF2TCU4AC1 TCU NE-SE SLP001 DENSITY ALT 1300FT
5:43 pm
V
61 °F 10 mi 3,500 ft Var Var 14 kt METAR CYYZ 252143Z VRB14KT 10SM FEW014 SCT020TCU BKN035 16/15 A2952 RMK CF1TCU3SC3 TCU NE-SE SLP999 DENSITY ALT 1300FT
5:00 pm
V
61 °F 8 mi 3,000 ft 150° 150° 5 kt METAR CYYZ 252100Z 15005KT 090V160 8SM -SHRA SCT018 OVC030 16/16 A2950 RMK SC3SC5 CVCTV CLD EMBD SLP993 DENSITY ALT 1300FT
4:53 pm
V
61 °F 10 mi 3,000 ft 110° 110° 6 kt METAR CYYZ 252053Z 11006KT 10SM SHRA SCT018 BKN030 16/16 A2950 RMK SC4SC3 CVCTV CLD EMBD SLP991 DENSITY ALT 1300FT
4:39 pm
M
61 °F 4 mi 3,000 ft 190° 190° 3 kt METAR CYYZ 252039Z 19003KT 140V220 4SM +SHRA SCT020 OVC030 16/16 A2950 RMK SC4SC4 CVCTV CLD EMBD SLP993 DENSITY ALT 1400FT
4:37 pm
V
61 °F 10 mi 3,000 ft 180° 180° 3 kt METAR CYYZ 252037Z 18003KT 130V200 10SM SHRA SCT020 BKN030 16/16 A2950 RMK SC3SC4 CVCTV CLD EMBD SLP992 DENSITY ALT 1400FT
4:13 pm
V
63 °F 15 mi 4,500 ft 130° 130° 5 kt METAR CYYZ 252013Z 13005KT 15SM -SHRA SCT020 BKN045 17/15 A2950 RMK SC4SC3 CVCTV CLD EMBD SLP990 DENSITY ALT 1400FT
4:00 pm
V
63 °F 10 mi 4,800 ft Var Var 3 kt METAR CYYZ 252000Z VRB03KT 10SM +SHRA SCT022 BKN048 17/14 A2950 RMK SC4SC3 CVCTV CLD EMBD SLP992 DENSITY ALT 1500FT
3:00 pm
V
64 °F 15 mi 5,500 ft 090° 090° 2 kt METAR CYYZ 251900Z 09002KT 15SM SCT019 BKN055 BKN090 18/13 A2950 RMK SC4SC1AC1 SLP993 DENSITY ALT 1500FT
2:00 pm
M
61 °F 15 mi 1,500 ft 030° 030° 5 kt METAR CYYZ 251800Z 03005KT 15SM FEW006 BKN015 BKN230 16/15 A2952 RMK SF2SC4CI1 SLP998 DENSITY ALT 1300FT
1:29 pm
M
61 °F 10 mi 1,500 ft Var Var 2 kt METAR CYYZ 251729Z VRB02KT 10SM SCT006 BKN015 16/14 A2952 RMK SF3SC4 CIG RAG SLP000 DENSITY ALT 1300FT
1:00 pm
M
61 °F 6 mi 1,500 ft Var Var 2 kt METAR CYYZ 251700Z VRB02KT 6SM -RA BR SCT006 OVC015 16/16 A2953 RMK SF3SC5 CIG RAG SLP001 DENSITY ALT 1300FT
12:00 pm
M
59 °F 6 mi 2,400 ft Var Var 2 kt METAR CYYZ 251600Z VRB02KT 6SM -RA BR SCT005 BKN024 BKN040 OVC070 15/15 A2953 RMK SF3SC3SC1AC1 /R11/ SLP004 DENSITY ALT 1100FT
11:48 am
M
57 °F 6 mi 1,000 ft Var Var 2 kt METAR CYYZ 251548Z VRB02KT 6SM -RA BR SCT005 BKN010 OVC018 14/14 A2954 RMK SF3NS3NS2 SLP006 DENSITY ALT 1100FT
11:20 am
I
59 °F 2 mi 500 ft 270° 270° 7 kt METAR CYYZ 251520Z 27007KT 230V300 2SM +RA BR OVC005 15/15 A2954 RMK NS8 SLP007 DENSITY ALT 1200FT
11:19 am
I
59 °F 2½ mi 500 ft 270° 270° 6 kt METAR CYYZ 251519Z 27006KT 150V300 2 1/2SM RA BR OVC005 15/15 A2954 RMK NS8 SLP006 DENSITY ALT 1200FT
11:00 am
M
59 °F 15 mi 2,200 ft Var Var 2 kt METAR CYYZ 251500Z VRB02KT 15SM R15L/5000VP6000FT/D -RA BR SCT004 OVC022 OVC035 15/15 A2954 RMK SF4SC3SC1 SLP007 DENSITY ALT 1200FT
10:00 am
V
59 °F 6 mi 3,500 ft 140° 140° 4 kt METAR CYYZ 251400Z 14004KT 6SM -RA BR SCT003 BKN035 OVC065 15/15 A2956 RMK SF4SC2SC2 CIG RAG SLP013 DENSITY ALT 1100FT
9:51 am
V
59 °F 6 mi 3,500 ft 130° 130° 4 kt METAR CYYZ 251351Z 13004KT 6SM -RA BR SCT003 BKN035 OVC065 15/15 A2956 RMK SF4SC2SC2 CIG RAG SLP014 DENSITY ALT 1200FT
9:00 am
L
59 °F 4 mi 300 ft 110° 110° 4 kt METAR CYYZ 251300Z 11004KT 4SM -RA BR BKN003 OVC040 15/15 A2957 RMK NS7SC1 SLP016 DENSITY ALT 1100FT
8:30 am
L
59 °F 3 mi 300 ft 120° 120° 4 kt METAR CYYZ 251230Z 12004KT 3SM -RA BR OVC003 OVC030 15/15 A2958 RMK NS8NS2 SLP020 DENSITY ALT 1100FT
8:05 am
L
59 °F 2½ mi 300 ft 100° 100° 6 kt METAR CYYZ 251205Z 10006KT 2 1/2SM RA BR OVC003 15/15 A2959 RMK NS8 SLP023 DENSITY ALT 1100FT
8:00 am
L
59 °F 3 mi 300 ft 130° 130° 5 kt METAR CYYZ 251200Z 13005KT 3SM -RA BR OVC003 15/15 A2959 RMK NS8 SLP024 DENSITY ALT 1100FT
7:51 am
L
57 °F 3 mi 300 ft 140° 140° 4 kt METAR CYYZ 251151Z 14004KT 090V150 3SM -RA BR OVC003 14/14 A2960 RMK NS8 SLP025 DENSITY ALT 1000FT
7:39 am
M
57 °F 4 mi 2,000 ft 100° 100° 3 kt METAR CYYZ 251139Z 10003KT 4SM -RA BR SCT003 BKN020 OVC075 14/14 A2960 RMK SF3SC4AC1 SLP025 DENSITY ALT 1000FT
7:28 am
I
57 °F 3 mi 2,200 ft 070° 070° 6 kt METAR CYYZ 251128Z 07006KT 3SM RA BR SCT004 BKN022 OVC060 14/14 A2960 RMK SF4SC3SC1 SLP027 DENSITY ALT 1000FT
7:00 am
M
57 °F 4 mi 4,000 ft 080° 080° 4 kt METAR CYYZ 251100Z 08004KT 4SM -RA BR FEW020 BKN040 OVC075 14/14 A2962 RMK SF2SC5AC1 SLP031 DENSITY ALT 1000FT
6:00 am
V
57 °F 10 mi 5,500 ft 080° 080° 4 kt METAR CYYZ 251000Z 08004KT 10SM -RA BKN055 OVC075 14/14 A2963 RMK SC6AC2 SLP036 DENSITY ALT 1000FT
5:50 am
V
57 °F 10 mi 5,500 ft 090° 090° 5 kt METAR CYYZ 250950Z 09005KT 10SM -RA BKN055 OVC090 14/13 A2964 RMK SC6AC1 SLP038 DENSITY ALT 1000FT
5:00 am
V
59 °F 15 mi 6,100 ft 090° 090° 6 kt METAR CYYZ 250900Z 09006KT 15SM BKN061 OVC085 15/12 A2966 RMK SC7AC1 SLP047 DENSITY ALT 1000FT
4:00 am
V
57 °F 15 mi 6,000 ft 100° 100° 4 kt METAR CYYZ 250800Z 10004KT 15SM BKN060 14/13 A2968 RMK SC7 SLP055 DENSITY ALT 900FT
3:00 am
V
57 °F 15 mi 4,500 ft 080° 080° 5 kt METAR CYYZ 250700Z 08005KT 15SM BKN045 BKN130 14/12 A2971 RMK SC5AC2 SLP062 DENSITY ALT 900FT
2:00 am
V
59 °F 15 mi 5,800 ft 100° 100° 4 kt METAR CYYZ 250600Z 10004KT 15SM BKN058 OVC100 15/09 A2974 RMK SC7AC1 SLP074 DENSITY ALT 900FT
1:00 am
V
59 °F 15 mi 4,300 ft 120° 120° 3 kt METAR CYYZ 250500Z 12003KT 090V150 15SM OVC043 15/08 A2977 RMK SC8 SLP084 DENSITY ALT 900FT
12:00 am
V
59 °F 15 mi 5,500 ft 140° 140° 3 kt METAR CYYZ 250400Z 14003KT 15SM OVC055 15/09 A2980 RMK SC8 SLP094 DENSITY ALT 900FT

September 24, 2022

Time Code Weather Temp. Visibility Ceiling Wind METAR/SPECI
11:00 pm
V
59 °F 15 mi 5,500 ft 190° 190° 2 kt METAR CYYZ 250300Z 19002KT 15SM OVC055 15/08 A2983 RMK SC8 SLP103 DENSITY ALT 900FT
10:00 pm
V
59 °F 15 mi 5,900 ft 220° 220° 4 kt METAR CYYZ 250200Z 22004KT 15SM OVC059 15/09 A2984 RMK SC8 SLP109 DENSITY ALT 800FT
9:00 pm
V
59 °F 15 mi 6,600 ft 210° 210° 4 kt METAR CYYZ 250100Z 21004KT 15SM OVC066 15/09 A2986 RMK AC8 SLP115 DENSITY ALT 800FT
8:28 pm
V
59 °F 15 mi 6,700 ft 220° 220° 5 kt METAR CYYZ 250028Z 22005KT 15SM OVC067 15/08 A2987 RMK AC8 SLP119 DENSITY ALT 800FT
8:00 pm
V
59 °F 15 mi 7,200 ft 230° 230° 10 kt METAR CYYZ 250000Z 23010KT 15SM -RA OVC072 15/08 A2988 RMK AC8 SLP121 DENSITY ALT 800FT
7:00 pm
V
61 °F 15 mi 7,900 ft 220° 220° 9 kt METAR CYYZ 242300Z 22009KT 15SM OVC079 16/06 A2988 RMK AC8 SLP123 DENSITY ALT 900FT
6:00 pm
V
61 °F 15 mi 8,700 ft 150° 150° 6 kt METAR CYYZ 242200Z 15006KT 15SM BKN087 16/08 A2990 RMK AC7 SLP128 DENSITY ALT 900FT
5:00 pm
V
61 °F 15 mi 9,400 ft 150° 150° 8 kt METAR CYYZ 242100Z 15008KT 15SM FEW040 BKN094 16/07 A2991 RMK CF1AC7 CF TR SLP132 DENSITY ALT 800FT
4:00 pm
V
61 °F 15 mi 11,000 ft 130° 130° 7 kt METAR CYYZ 242000Z 13007KT 15SM FEW040 BKN110 BKN150 BKN250 16/06 A2992 RMK CF1AC5AC1CI1 CF TR PRESFR SLP136 DENSITY ALT 900FT
3:00 pm
V
63 °F 15 mi 16,000 ft 150° 150° 6 kt METAR CYYZ 241900Z 15006KT 15SM FEW040 FEW120 BKN160 BKN250 17/07 A2994 RMK CF1AC2AC3CI1 CF TR SLP144 DENSITY ALT 1000FT
2:00 pm
V
63 °F 15 mi 25,000 ft 190° 190° 8 kt METAR CYYZ 241800Z 19008KT 130V220 15SM FEW040 FEW180 BKN250 17/06 A2998 RMK CF1AC2CI3 CF TR SLP157 DENSITY ALT 900FT
1:00 pm
V
64 °F 15 mi - 270° 270° 3 kt METAR CYYZ 241700Z 27003KT 15SM FEW040 FEW180 SCT250 18/05 A3001 RMK CF1AC1CI2 CF TR SLP165 DENSITY ALT 1000FT
12:00 pm
V
61 °F 15 mi - 270° 270° 2 kt METAR CYYZ 241600Z 27002KT 15SM FEW035 FEW180 SCT260 16/05 A3004 RMK CF1AC1CI2 AC TR SLP176 DENSITY ALT 700FT
11:00 am
V
59 °F 15 mi 26,000 ft Var 000° 0 kt METAR CYYZ 241500Z 00000KT 15SM FEW030 FEW180 BKN260 15/05 A3006 RMK CF1AC1CI3 SLP183
10:00 am
V
55 °F 15 mi 26,000 ft 050° 050° 3 kt METAR CYYZ 241400Z 05003KT 15SM FEW030 FEW190 BKN260 13/06 A3007 RMK CU1AC2CI4 CU TR SLP186
9:00 am
V
52 °F 15 mi 25,000 ft Var 000° 0 kt METAR CYYZ 241300Z 00000KT 15SM FEW180 SCT210 BKN250 11/06 A3008 RMK AC2CC2CI1 SLP190
8:00 am
V
48 °F 15 mi 25,000 ft 270° 270° 4 kt METAR CYYZ 241200Z 27004KT 15SM SCT200 BKN250 09/07 A3009 RMK CC4CI1 SLP194
7:00 am
V
43 °F 15 mi - 270° 270° 3 kt METAR CYYZ 241100Z 27003KT 260V330 15SM FEW180 FEW240 06/05 A3009 RMK AC1CI2 AC TR SLP195
6:00 am
V
45 °F 15 mi - 270° 270° 4 kt METAR CYYZ 241000Z 27004KT 15SM SCT210 07/05 A3009 RMK CI3 SLP196
5:00 am
V
43 °F 15 mi - 260° 260° 6 kt METAR CYYZ 240900Z 26006KT 15SM SCT220 06/05 A3010 RMK CI3 SLP199
4:00 am
V
45 °F 15 mi - 280° 280° 4 kt METAR CYYZ 240800Z 28004KT 15SM SCT230 07/05 A3010 RMK CI3 SLP199
3:00 am
V
46 °F 15 mi - 280° 280° 5 kt METAR CYYZ 240700Z 28005KT 15SM SCT240 08/05 A3010 RMK CI4 SLP198
2:00 am
V
45 °F 15 mi 24,000 ft 260° 260° 5 kt METAR CYYZ 240600Z 26005KT 15SM BKN240 07/05 A3012 RMK CI5 SLP205
1:00 am
V
46 °F 15 mi - 280° 280° 4 kt METAR CYYZ 240500Z 28004KT 15SM SCT260 08/04 A3012 RMK CI3 SLP206
12:00 am
V
50 °F 15 mi - 330° 330° 3 kt METAR CYYZ 240400Z 33003KT 300V010 15SM SCT230 10/05 A3013 RMK CI4 SLP208

September 23, 2022

Time Code Weather Temp. Visibility Ceiling Wind METAR/SPECI
11:00 pm
V
50 °F 15 mi - 020° 020° 6 kt METAR CYYZ 240300Z 02006KT 15SM SCT230 10/05 A3013 RMK CI3 SLP207
10:00 pm
V
54 °F 15 mi - 330° 330° 7 kt METAR CYYZ 240200Z 33007KT 15SM FEW200 12/05 A3013 RMK CI2 SLP209
9:00 pm
V
54 °F 15 mi - 330° 330° 6 kt METAR CYYZ 240100Z 33006KT 15SM FEW260 12/05 A3015 RMK CI1 CI TR SLP213
8:00 pm
V
55 °F 15 mi - 010° 010° 10 kt METAR CYYZ 240000Z 01010KT 15SM FEW260 13/04 A3012 RMK CI1 SLP206
7:00 pm
V
57 °F 15 mi - 350° 350° 10 kt METAR CYYZ 232300Z 35010KT 15SM FEW050 FEW260 14/04 A3013 RMK CF1CI1 CF TR SLP208
6:00 pm
V
59 °F 15 mi - 360° 360° 8 kt METAR CYYZ 232200Z 36008KT 15SM FEW050 FEW230 15/03 A3011 RMK CF1CI1 CF TR CI TR SLP202 DENSITY ALT 600FT
5:00 pm
V
61 °F 15 mi - 350° 350° 11 kt METAR CYYZ 232100Z 35011KT 15SM FEW055 16/02 A3012 RMK CF1 CF TR SLP205 DENSITY ALT 600FT
4:00 pm
V
61 °F 15 mi - 350° 350° 12 - 18 kt METAR CYYZ 232000Z 35012G18KT 15SM FEW055 16/02 A3013 RMK CF1 CF TR SLP207 DENSITY ALT 600FT
3:00 pm
V
61 °F 15 mi - 350° 350° 11 - 20 kt METAR CYYZ 231900Z 35011G20KT 15SM FEW060 16/02 A3013 RMK CU1 CU TR SLP208 DENSITY ALT 600FT
2:00 pm
V
59 °F 15 mi - 330° 330° 16 - 21 kt METAR CYYZ 231800Z 33016G21KT 15SM FEW060 15/01 A3016 RMK CU1 CU TR SLP218
1:00 pm
V
57 °F 15 mi - 350° 350° 10 - 22 kt METAR CYYZ 231700Z 35010G22KT 15SM FEW055 14/00 A3018 RMK CU1 CU TR SLP225
Older data

We and third parties follow your internet behavior on our website with cookies. If you continue, we assume you agree with our cookie policy. Learn more